This is the latest recevied weather packets stored in our database for station/object WD8INF-9. If no packets are shown the sender has not sent any weather packets the latest 1 day(s).
| Time | Temp. | Humidity | Pressure | Rain* | Wind** | Luminosity | Snow |
|---|---|---|---|---|---|---|---|
| 1778075740 | 11.11° C | - | 1010.4 hPa | 0 mm | - | - | - |
| 1778075140 | 10° C | - | 1010.5 hPa | 0 mm | - | - | - |
| 1778073939 | 9.44° C | - | 1010.4 hPa | 0 mm | - | - | - |
| 1778073038 | 8.89° C | - | 1010.3 hPa | 0 mm | - | - | - |
| 1778072738 | 9.44° C | - | 1010.2 hPa | 0 mm | - | - | - |
| 1778071537 | 9.44° C | - | 1009.8 hPa | 0 mm | - | - | - |
| 1778071237 | 9.44° C | - | 1009.8 hPa | 0 mm | - | - | - |
| 1778070036 | 8.33° C | - | 1009.5 hPa | 0 mm | - | - | - |
| 1778069135 | 7.78° C | - | 1009.5 hPa | 0 mm | - | - | - |
| 1778067933 | 7.78° C | - | 1008.8 hPa | 0 mm | - | - | - |
| 1778064629 | 7.22° C | - | 1008.3 hPa | 0 mm | - | - | - |
| 1778063126 | 7.22° C | - | 1007.7 hPa | 0 mm | - | - | - |
| 1778062826 | 7.22° C | - | 1007.4 hPa | 0 mm | - | - | - |
| 1778062225 | 7.22° C | - | 1007.5 hPa | 0 mm | - | - | - |
| 1778061925 | 7.22° C | - | 1007.6 hPa | 0 mm | - | - | - |
| 1778060724 | 7.22° C | - | 1007.4 hPa | 0 mm | - | - | - |
| 1778059823 | 7.22° C | - | 1007 hPa | 0 mm | - | - | - |
| 1778059523 | 7.22° C | - | 1006.7 hPa | 0 mm | - | - | - |
| 1778058922 | 7.22° C | - | 1007 hPa | 0 mm | - | - | - |
| 1778058322 | 7.22° C | - | 1006.9 hPa | 0 mm | - | - | - |
| 1778058022 | 7.22° C | - | 1007.2 hPa | 0 mm | - | - | - |
| 1778057721 | 7.22° C | - | 1007.1 hPa | 0 mm | - | - | - |
| 1778057120 | 7.22° C | - | 1007.1 hPa | 0 mm | - | - | - |
| 1778056820 | 7.22° C | - | 1007.2 hPa | 0 mm | - | - | - |
| 1778056219 | 7.22° C | - | 1006.9 hPa | 0 mm | - | - | - |
* Rain since midnight (hover to see other rain measurements)
** Current wind speed in m/s (hover to see current wind gust speed)